TGL93W KLAX-LFPG

Flight info

Callsign TGL93W
Flight time N/A
Altitude 33000
Route ORCKA5 LAS DCT BAWER DCT LARVE DCT EKR DCT BFF DCT KD78A DCT RWF/N0486F350 DCT GEP DCT KP09K DCT CMX DCT HENDY DCT YWK DCT HOIST/M084F370 DCT 57N050W 58N040W 58N030W 57N020W DCT PIKIL DCT SOVED/N0483F390 DCT REVNU DCT LIPGO DCT NUCHU L18 MID/N0453F290 Y803 SFD UM605 BIBAX
Aircraft A35K/H-SDE2E3GHIJ3J4J5LM1ORWXY/LB1D1

Departure

Time 2026-04-20 07:11
Airport Los Angeles International Airport (KLAX)

Arrival

Time N/A
Airport Charles de Gaulle International Airport (LFPG)
Time Latitude Longitude Altitude Speed Heading
2026-04-20 06:25 33.94482 -118.41612 102 ft 0 kts 83°
2026-04-20 06:59 33.94481 -118.41615 98 ft 3 kts 83°
2026-04-20 06:59 33.94479 -118.41636 99 ft 4 kts 82°
2026-04-20 06:59 33.94472 -118.41666 99 ft 4 kts 53°
2026-04-20 07:00 33.94453 -118.41685 98 ft 4 kts 15°
2026-04-20 07:00 33.94431 -118.41688 98 ft 1 kts 353°
2026-04-20 07:02 33.94437 -118.41689 99 ft 1 kts 354°
2026-04-20 07:03 33.94451 -118.41690 100 ft 3 kts 355°
2026-04-20 07:03 33.94472 -118.41693 101 ft 3 kts 348°
2026-04-20 07:03 33.94498 -118.41699 100 ft 5 kts 351°
2026-04-20 07:03 33.94535 -118.41705 102 ft 6 kts 352°
2026-04-20 07:04 33.94582 -118.41713 100 ft 7 kts 353°
2026-04-20 07:04 33.94625 -118.41698 101 ft 6 kts 32°
2026-04-20 07:04 33.94649 -118.41646 101 ft 8 kts 75°
2026-04-20 07:04 33.94668 -118.41590 101 ft 6 kts 47°
2026-04-20 07:05 33.94698 -118.41574 101 ft 4 kts 17°
2026-04-20 07:05 33.94725 -118.41562 101 ft 4 kts 28°
2026-04-20 07:05 33.94742 -118.41533 103 ft 5 kts 62°
2026-04-20 07:05 33.94756 -118.41488 102 ft 7 kts 72°
2026-04-20 07:06 33.94769 -118.41426 100 ft 9 kts 76°
2026-04-20 07:06 33.94785 -118.41341 100 ft 12 kts 79°
2026-04-20 07:06 33.94798 -118.41230 103 ft 15 kts 82°
2026-04-20 07:06 33.94813 -118.41097 101 ft 17 kts 83°
2026-04-20 07:07 33.94827 -118.40944 103 ft 20 kts 83°
2026-04-20 07:07 33.94845 -118.40771 100 ft 21 kts 82°
2026-04-20 07:07 33.94864 -118.40599 102 ft 21 kts 83°
2026-04-20 07:07 33.94881 -118.40419 100 ft 22 kts 83°
2026-04-20 07:08 33.94896 -118.40262 100 ft 16 kts 83°
2026-04-20 07:08 33.94908 -118.40141 99 ft 12 kts 84°
2026-04-20 07:08 33.94915 -118.40057 102 ft 10 kts 83°
2026-04-20 07:08 33.94925 -118.39982 99 ft 8 kts 70°
2026-04-20 07:09 33.94936 -118.39951 101 ft 1 kts 65°
2026-04-20 07:09 33.94942 -118.39942 101 ft 3 kts 58°
2026-04-20 07:09 33.94967 -118.39922 103 ft 6 kts 22°
2026-04-20 07:09 33.95021 -118.39923 101 ft 8 kts 341°
2026-04-20 07:10 33.95033 -118.39958 102 ft 5 kts 285°
2026-04-20 07:10 33.95036 -118.39998 103 ft 5 kts 268°
2026-04-20 07:10 33.95032 -118.40049 103 ft 9 kts 263°
2026-04-20 07:10 33.95012 -118.40252 104 ft 52 kts 263°
2026-04-20 07:11 33.94934 -118.41015 103 ft 129 kts 263°
2026-04-20 07:11 33.94794 -118.42369 152 ft 191 kts 263°
2026-04-20 07:11 33.94616 -118.44073 758 ft 212 kts 262°
2026-04-20 07:11 33.94425 -118.45860 1813 ft 219 kts 263°
2026-04-20 07:12 33.94257 -118.47641 2513 ft 216 kts 262°
2026-04-20 07:12 33.94004 -118.49474 2849 ft 230 kts 253°
2026-04-20 07:12 33.93241 -118.51246 3049 ft 248 kts 226°
2026-04-20 07:12 33.91744 -118.52291 3388 ft 254 kts 189°
2026-04-20 07:13 33.90036 -118.52065 3916 ft 254 kts 154°
2026-04-20 07:13 33.88719 -118.50643 4497 ft 258 kts 120°
2026-04-20 07:13 33.88321 -118.48564 5020 ft 265 kts 86°
2026-04-20 07:13 33.88987 -118.46478 5525 ft 275 kts 53°
2026-04-20 07:14 33.90473 -118.44980 6036 ft 282 kts 35°
2026-04-20 07:14 33.92045 -118.43585 6554 ft 286 kts 42°
2026-04-20 07:14 33.93503 -118.41937 7076 ft 288 kts 49°
2026-04-20 07:14 33.94815 -118.40094 7625 ft 290 kts 54°
2026-04-20 07:15 33.96050 -118.38155 8179 ft 293 kts 56°
2026-04-20 07:15 33.97255 -118.36157 8725 ft 296 kts 57°
2026-04-20 07:15 33.98446 -118.34122 9332 ft 299 kts 58°
2026-04-20 07:15 33.99642 -118.32048 9903 ft 302 kts 58°
2026-04-20 07:16 34.00830 -118.29968 10295 ft 311 kts 58°
2026-04-20 07:16 34.02090 -118.27762 10515 ft 326 kts 58°
2026-04-20 07:16 34.03403 -118.25449 10722 ft 341 kts 58°
2026-04-20 07:16 34.04773 -118.23030 10933 ft 355 kts 58°